Location: Unspecified
(0.0000°N, 0.0000°E)
Time: 07:23:29
(UTC-05:00)

Cosmos 2058 - Visible Passes

Search period start: 20 July 2019 00:00
Search period end: 30 July 2019 00:00
Orbit: 564 x 583 km, 82.5° (Epoch: 19 July)

Date Brightness Start Highest point End Pass type
(mag) Time Alt. Az. Time Alt. Az. Time Alt. Az.
20 Jul 4.4 13:50:47 14° ESE 13:52:27 17° E 13:55:06 10° NE visible
20 Jul 5.7 15:26:49 11° WSW 15:29:03 16° W 15:31:40 10° NW visible
21 Jul 4.0 13:52:03 10° SSE 13:55:25 24° E 13:58:47 10° NE visible
21 Jul 6.1 15:30:49 10° WSW 15:32:03 11° W 15:33:16 10° WNW visible
22 Jul 3.5 13:54:37 10° SSE 13:58:24 34° E 14:02:11 10° NNE visible
23 Jul 3.1 13:57:20 10° S 14:01:23 50° E 14:05:26 10° NNE visible
24 Jul 2.8 14:00:12 10° S 14:04:22 75° E 14:08:32 10° N visible
25 Jul 3.1 14:03:10 10° S 14:07:20 73° W 14:11:31 10° N visible
26 Jul 3.9 14:06:16 10° SSW 14:10:19 49° W 14:14:22 10° N visible
27 Jul 4.8 14:09:31 10° SSW 14:13:18 33° W 14:17:04 10° NNW visible
28 Jul 5.5 14:12:56 10° SW 14:16:17 23° W 14:19:37 10° NNW visible
29 Jul 6.2 00:39:07 10° ENE 00:41:08 13° E 00:43:09 10° ESE visible
29 Jul 6.0 14:16:37 10° SW 14:19:15 16° W 14:21:54 10° NW visible
